Location: Unspecified
(33.6682°S, 0.0000°E)
Time: 10:54:02
(UTC+00:00)

Courier 1B - Pass Details

Date: 19 June 2019
Orbit: 963 x 1209 km, 28.3° (Epoch: 20 July)

Event Time Altitude Azimuth Distance (km) Brightness Sun altitude
Rises 05:48:08 0° 323° (NW) 3,903 10.5 -15.3°
Reaches altitude 10° 05:51:38 10° 337° (NNW) 2,903 9.9 -14.6°
Maximum altitude 05:56:47 22° 24° (NNE) 2,111 9.8 -13.6°
Drops below altitude 10° 06:01:45 10° 72° (ENE) 2,787 11.4 -12.6°
Sets 06:05:01 0° 87° (E) 3,707 12.1 -12.0°
